Location: Unspecified
(0.0000°N, 0.0000°E)
Time: 22:54:43
(UTC+00:00)

Tiros 1 despin weight - All Passes

Search period start: 25 January 2021 00:00
Search period end: 04 February 2021 00:00
Orbit: 594 x 641 km, 48.2° (Epoch: 25 January)

Date Brightness Start Highest point End Pass type
(mag) Time Alt. Az. Time Alt. Az. Time Alt. Az.
25 Jan - 10:17:31 10° SSW 10:22:01 47° SE 10:26:29 10° NE daylight
25 Jan - 12:01:11 10° W 12:03:26 13° NW 12:05:40 10° NNW daylight
25 Jan - 22:25:38 10° NW 22:30:02 78° NE 22:34:28 10° SE night (unlit)
26 Jan - 08:56:06 10° SE 08:56:51 10° SE 08:57:37 10° ESE daylight
26 Jan - 10:33:43 10° SW 10:38:21 62° NW 10:42:55 10° NNE daylight
26 Jan - 21:02:23 10° NNE 21:04:59 15° NE 21:07:37 10° E night (unlit)
26 Jan - 22:42:19 10° WNW 22:46:21 36° SW 22:50:27 10° SSE night (unlit)
27 Jan - 09:09:19 10° S 09:13:17 27° SE 09:17:13 10° ENE daylight
27 Jan - 10:50:58 10° WSW 10:54:40 23° NW 10:58:22 10° N daylight
27 Jan - 21:17:12 10° NNW 21:21:21 41° NE 21:25:31 10° ESE night (unlit)
27 Jan - 23:00:30 10° W 23:02:44 14° SW 23:04:58 10° SSW night (unlit)
28 Jan - 09:24:57 10° SSW 09:29:38 72° SE 09:34:15 10° NE daylight
28 Jan - 21:33:18 10° NW 21:37:39 67° SW 21:42:03 10° SSE night (unlit)
29 Jan - 08:01:43 10° SSE 08:04:30 16° SE 08:07:18 10° E daylight
29 Jan - 09:41:32 10° WSW 09:45:56 41° NW 09:50:19 10° NNE daylight
29 Jan - 20:09:10 10° N 20:12:39 23° NE 20:16:08 10° ESE night (unlit)
29 Jan - 21:50:27 10° WNW 21:53:59 24° SW 21:57:35 10° S night (unlit)
30 Jan - 08:16:30 10° SSW 08:20:53 39° SE 08:25:15 10° ENE daylight
30 Jan - 09:59:25 10° W 10:02:18 16° NW 10:05:09 10° NNW daylight
30 Jan - 20:24:37 10° NNW 20:28:58 64° NE 20:33:21 10° SE visible
31 Jan - 08:32:31 10° SW 08:37:13 75° NW 08:41:51 10° NE daylight
31 Jan - 19:01:54 10° NNE 19:03:54 13° NE 19:05:55 10° ENE visible
31 Jan - 20:41:07 10° WNW 20:45:17 43° SW 20:49:29 10° SSE visible
01 Feb - 07:08:27 10° S 07:12:08 23° SE 07:15:48 10° ENE daylight
01 Feb - 08:49:32 10° WSW 08:53:32 28° NW 08:57:30 10° N daylight
01 Feb - 19:16:17 10° NNW 19:20:17 34° NE 19:24:17 10° ESE visible
01 Feb - 20:58:55 10° W 21:01:39 16° SW 21:04:23 10° S visible
02 Feb - 07:23:51 10° SSW 07:28:28 60° SE 07:33:05 10° NE daylight
02 Feb - 09:08:51 10° WNW 09:09:56 11° NW 09:11:00 10° NW daylight
02 Feb - 19:32:12 10° NW 19:36:35 82° SW 19:41:00 10° SE visible
03 Feb - 06:01:10 10° SSE 06:03:21 13° SE 06:05:32 10° ESE daylight
03 Feb - 07:40:16 10° SW 07:44:47 49° NW 07:49:18 10° NNE daylight
03 Feb - 18:08:23 10° N 18:11:34 19° NE 18:14:44 10° E daylight
03 Feb - 19:49:08 10° WNW 19:52:55 28° SW 19:56:43 10° S visible
